Retour au catalogue

STARLINK-4563

ActifCommunicationsVLEO
NORAD 53561·PAYLOAD·🇺🇸 United States

Lancé Aug 19, 2022 depuis Cape Canaveral Space Force Station

Loading…

Prochains Passages (prochaines 24 heures)

TLE

FraisSource: CelesTrak SupGP

Époque: Sep 14, 2026, 20:46 UTC

1 53561C 22101AL  26257.86576389  .00022337  00000+0  66045-3 0  2577
2 53561  53.1566 283.7084 0001228  96.9117 109.0600 15.34355073    19

Suivez STARLINK-4563 en temps réel avec AllMySat

Download on the App Store